TimeCST,TemperatureF,Dew PointF,Humidity,Sea Level PressureIn,VisibilityMPH,Wind Direction,Wind SpeedMPH,Gust SpeedMPH,PrecipitationIn,Events,Conditions,WindDirDegrees,DateUTC
12:00 AM,67,64,89,30.13,12,WSW,3.5,,,,Partly Cloudy,240,2013-02-18 06:00:00
3:00 AM,64,58,75,30.08,12,Calm,Calm,,,,Scattered Clouds,,2013-02-18 09:00:00
5:00 AM,64.4,62.6,94,30.07,6.2,WSW,3.5,-,N/A,,Partly Cloudy,250,2013-02-18 11:00:00
6:00 AM,65,62,89,30.09,12,Calm,Calm,,,,Mostly Cloudy,,2013-02-18 12:00:00
6:00 AM,64.4,62.6,94,30.08,6.2,Calm,Calm,-,N/A,,Scattered Clouds,0,2013-02-18 12:00:00
7:00 AM,66.2,64.4,94,30.09,6.2,WSW,3.5,-,N/A,,Scattered Clouds,250,2013-02-18 13:00:00
8:00 AM,68.0,64.4,88,30.11,6.2,Calm,Calm,-,N/A,,Mostly Cloudy,0,2013-02-18 14:00:00
9:00 AM,72,66,76,30.12,12,SW,3.5,,,,Mostly Cloudy,220,2013-02-18 15:00:00
9:00 AM,73.4,66.2,78,30.11,6.2,SW,3.5,-,N/A,,Mostly Cloudy,220,2013-02-18 15:00:00
11:00 AM,80.6,64.4,58,30.10,6.2,East,12.7,-,N/A,,Scattered Clouds,90,2013-02-18 17:00:00
12:00 PM,80,62,44,30.08,16,East,12.7,,,,Mostly Cloudy,90,2013-02-18 18:00:00
12:00 PM,80.6,62.6,54,30.07,6.2,East,12.7,-,N/A,,Mostly Cloudy,90,2013-02-18 18:00:00
1:00 PM,78.8,64.4,61,30.04,6.2,East,11.5,-,N/A,,Partly Cloudy,100,2013-02-18 19:00:00
2:00 PM,80.6,64.4,58,30.01,6.2,East,8.1,-,N/A,,Partly Cloudy,90,2013-02-18 20:00:00
3:00 PM,78,66,58,30.00,16,East,10.4,,,,Partly Cloudy,90,2013-02-18 21:00:00
3:00 PM,78.8,66.2,65,29.99,6.2,East,10.4,-,N/A,,Scattered Clouds,90,2013-02-18 21:00:00
4:00 PM,78.8,66.2,65,29.99,6.2,East,10.4,-,N/A,,Partly Cloudy,80,2013-02-18 22:00:00
5:00 PM,78.8,68.0,69,29.99,6.2,East,9.2,-,N/A,,Mostly Cloudy,100,2013-02-18 23:00:00
6:00 PM,76,70,76,30.01,12,East,9.2,,,,Mostly Cloudy,90,2013-02-19 00:00:00
6:00 PM,75.2,69.8,83,30.01,6.2,East,9.2,-,N/A,,Mostly Cloudy,90,2013-02-19 00:00:00
9:00 PM,73,71,93,30.04,12,East,3.5,,,Rain,Light Rain Showers,90,2013-02-19 03:00:00
9:00 PM,73.4,71.6,94,30.04,-9999.0,North,-9999.0,-,N/A,,Mostly Cloudy,0,2013-02-19 03:00:00